Location: Newark
(52.2121°N, 1.8547°W)
Time: 17:26:29
(UTC+00:00)

ISS - Visible Passes

Search period start: 26 January 2020 00:00
Search period end: 05 February 2020 00:00
Orbit: 416 x 423 km, 51.6° (Epoch: 27 January)

Date Brightness Start Highest point End Pass type
(mag) Time Alt. Az. Time Alt. Az. Time Alt. Az.
26 Jan -2.3 17:25:51 10° SSW 17:28:47 28° SSE 17:31:45 10° E visible
26 Jan -3.4 19:01:56 10° WSW 19:04:54 62° SW 19:04:54 62° SW visible
27 Jan -3.5 18:14:28 10° WSW 18:17:49 61° SSE 18:19:21 29° E visible
27 Jan -1.0 19:51:11 10° W 19:52:18 19° W 19:52:18 19° W visible
28 Jan -3.1 17:27:04 10° SW 17:30:21 49° SSE 17:33:39 10° E visible
28 Jan -3.6 19:03:39 10° W 19:06:44 70° WSW 19:06:44 70° WSW visible
29 Jan -3.8 18:16:07 10° W 18:19:30 80° S 18:21:08 28° E visible
29 Jan -1.0 19:52:55 10° W 19:54:06 20° W 19:54:06 20° W visible
30 Jan -3.6 17:28:35 10° WSW 17:31:58 73° S 17:35:21 10° E visible
30 Jan -3.6 19:05:22 10° W 19:08:31 70° SW 19:08:31 70° SW visible
31 Jan -3.8 18:17:48 10° W 18:21:12 81° S 18:22:57 26° E visible
31 Jan -1.1 19:54:37 10° W 19:55:55 20° W 19:55:55 20° W visible
01 Feb -3.7 17:30:13 10° W 17:33:37 83° S 17:37:00 10° E visible
01 Feb -3.2 19:07:02 10° W 19:10:20 52° SSW 19:10:23 52° SSW visible
02 Feb -3.5 18:19:26 10° W 18:22:48 64° SSW 18:24:54 21° ESE visible
02 Feb -1.0 19:56:31 10° W 19:57:52 17° WSW 19:57:52 17° WSW visible
03 Feb -3.6 17:31:50 10° W 17:35:13 75° S 17:38:36 10° ESE visible
03 Feb -2.2 19:08:45 10° W 19:11:46 30° SSW 19:12:28 27° S visible
04 Feb -2.6 18:21:03 10° W 18:24:16 40° SSW 18:27:10 12° SE visible
04 Feb -0.6 19:59:25 10° WSW 20:00:09 11° SW 20:00:09 11° SW visible
